Location: Burland Observatory
(39.4088°N, 105.4217°W)
Time: 12:38:35
(UTC-07:00)

Vanguard 3 - Pass Details

Date: 15 December 2019
Orbit: 507 x 3264 km, 33.4° (Epoch: 26 January)

Event Time Altitude Azimuth Distance (km) Brightness Sun altitude
Rises 05:46:07 0° 221° (SW) 2,945 - -16.5°
Exits shadow 05:46:11 - 221° (SW) 2,923 9.8 -16.5°
Reaches altitude 10° 05:48:20 10° 209° (SSW) 2,233 9.3 -16.1°
Maximum altitude 05:52:48 29° 149° (SSE) 1,693 9.3 -15.2°
Drops below altitude 10° 05:59:38 10° 93° (E) 3,509 11.7 -14.0°
Sets 06:04:03 0° 85° (E) 5,008 12.5 -13.2°
